Location: Unspecified
(0.0000°N, 0.0000°E)
Time: 01:31:15
(UTC+02:00)

OPAL - Visible Passes

Search period start: 02 September 2014 00:00
Search period end: 12 September 2014 00:00
Orbit: 745 x 796 km, 100.2° (Epoch: 01 September)

Date Brightness Start Highest point End Pass type
(mag) Time Alt. Az. Time Alt. Az. Time Alt. Az.
02 Sep 10.3 05:07:00 10° E 05:09:07 13° ENE 05:11:15 10° NE visible
02 Sep 7.9 06:43:10 10° S 06:47:43 36° WSW 06:52:18 10° NW visible
03 Sep 7.5 06:07:36 10° SSE 06:12:36 79° ENE 06:17:38 10° N visible
04 Sep 9.3 05:33:17 10° SE 05:37:30 28° ENE 05:41:44 10° NNE visible
04 Sep 8.8 07:12:56 10° SW 07:16:07 17° WSW 07:19:19 10° WNW visible
05 Sep 7.6 06:36:13 10° S 06:41:00 47° WSW 06:45:51 10° NNW visible
06 Sep 7.9 06:00:58 10° SSE 06:05:54 60° ENE 06:10:52 10° N visible
07 Sep 9.7 05:27:02 10° SE 05:30:48 22° ENE 05:34:36 10° NNE visible
07 Sep 8.6 07:05:35 10° SSW 07:09:25 22° WSW 07:13:17 10° NW visible
08 Sep 7.4 06:29:21 10° S 06:34:18 63° WSW 06:39:19 10° NNW visible
09 Sep 8.4 05:54:24 10° SSE 05:59:12 46° ENE 06:04:02 10° N visible
10 Sep 10.1 05:20:58 10° ESE 05:24:07 17° ENE 05:27:17 10° NE visible
10 Sep 8.3 06:58:25 10° SSW 07:02:43 29° WSW 07:07:03 10° NW visible
11 Sep 7.3 06:22:34 10° S 06:27:36 82° WSW 06:32:42 10° NNW visible
